CW5112 Weather Reports


time (UTC)temp
C
wind
direction
speed
KPH
gust
KPH
rain 1hr
cm
rain 24hr
cm
rain mn
cm
humidity
%
barometer
mb
20260510120005 12 140 0.0 0.0 0.00 0.00 0.00 88 1014.1
20260510114502 11 141 0.0 0.0 0.00 0.00 0.00 88 1013.6
20260510113059 11 140 0.0 0.0 0.00 0.00 0.00 88 1013.5
20260510111607 11 139 0.0 0.0 0.00 0.00 0.00 88 1013.2
20260510110054 11 139 0.0 0.0 0.00 0.00 0.00 87 1012.8
20260510104610 11 139 0.0 0.0 0.00 0.00 0.00 87 1012.7
20260510103050 11 139 0.0 0.0 0.00 0.00 0.00 87 1012.5
20260510101549 11 139 0.0 0.0 0.00 0.00 0.00 86 1012.4
20260510100046 11 139 0.0 0.0 0.00 0.00 0.00 85 1012.3
20260510094544 11 139 0.0 0.0 0.00 0.00 0.00 83 1012.3
20260510093041 12 139 0.0 0.0 0.00 0.00 0.00 83 1012.2
20260510091538 12 146 0.0 0.0 0.00 0.00 0.00 81 1012.1
20260510090036 13 146 0.0 0.0 0.00 0.00 0.00 80 1012.0
20260510084535 13 146 0.0 0.0 0.00 0.00 0.00 80 1011.8
20260510083034 13 148 0.0 0.0 0.00 0.00 0.00 79 1011.8
20260510081532 13 146 0.0 0.0 0.00 0.00 0.00 79 1011.6
20260510080035 12 146 0.0 0.0 0.00 0.00 0.00 79 1011.4
20260510074533 13 146 0.0 0.0 0.00 0.00 0.00 78 1011.3
20260510073025 13 146 0.0 0.0 0.00 0.00 0.00 76 1011.2
20260510071524 13 146 0.0 0.0 0.00 0.00 0.00 75 1011.0
20260510070022 13 146 0.0 0.0 0.00 0.00 0.00 74 1011.1
20260510064519 14 146 0.0 0.0 0.00 0.00 0.00 73 1011.0
20260510063018 15 146 0.0 0.0 0.00 0.00 0.00 71 1011.0
20260510061525 15 146 0.0 0.0 0.00 0.00 0.00 69 1011.0
20260510060030 15 146 0.0 0.0 0.00 0.00 0.00 68 1011.1
20260510054514 16 146 0.0 0.0 0.00 0.00 0.00 68 1011.2
20260510053013 15 146 0.0 0.0 0.00 0.00 0.00 68 1011.2
20260510051513 15 146 0.0 0.0 0.00 0.00 0.00 68 1011.2
20260510050016 15 146 0.0 0.0 0.00 0.00 0.00 68 1011.2
20260510044510 15 146 0.0 0.0 0.00 0.00 0.00 67 1011.1
20260510043009 15 146 0.0 0.0 0.00 0.00 0.00 66 1011.1
20260510041514 16 157 0.0 0.0 0.00 0.00 0.00 65 1011.1
20260510040003 16 157 0.0 0.0 0.00 0.00 0.00 63 1011.1
20260510034502 17 157 0.0 0.0 0.00 0.00 0.00 63 1011.2
20260510033002 16 178 0.0 0.0 0.00 0.00 0.00 63 1011.1
20260510031503 16 178 0.0 0.0 0.00 0.00 0.00 63 1011.1
20260510030001 17 178 0.0 0.0 0.00 0.00 0.00 61 1011.1
20260510024601 17 178 0.0 0.0 0.00 0.00 0.00 61 1010.8
20260510023102 17 178 0.0 0.0 0.00 0.00 0.00 60 1010.8
20260510021600 17 178 0.0 0.0 0.00 0.00 0.00 59 1010.6
20260510014558 17 178 0.0 0.0 0.00 0.00 0.00 60 1009.9
20260510013059 17 178 0.0 0.0 0.00 0.00 0.00 59 1009.7
20260510011618 18 178 0.0 0.0 0.00 0.00 0.00 58 1009.3
20260510010107 18 198 0.0 0.0 0.00 0.00 0.00 57 1009.2
20260510004558 18 198 0.0 0.0 0.00 0.00 0.00 57 1009.1
20260510003103 18 155 0.0 0.0 0.00 0.00 0.00 57 1009.0
20260510001556 19 155 0.0 0.0 0.00 0.00 0.00 56 1008.8
20260510000055 20 155 0.0 0.0 0.00 0.00 0.00 52 1008.5
20260509234603 21 250 0.0 0.0 0.00 0.00 0.00 48 1008.2
20260509233101 22 226 0.0 0.0 0.00 0.00 0.00 48 1008.2
20260509231602 22 15 0.0 1.6 0.00 0.00 0.00 46 1008.0
20260509230054 22 337 0.0 1.6 0.00 0.00 0.00 46 1007.9
20260509224552 22 5 0.0 3.2 0.00 0.00 0.00 47 1007.8
20260509223051 21 304 0.0 0.0 0.00 0.00 0.00 57 1007.8
20260509221550 21 136 0.0 0.0 0.00 0.00 0.00 58 1007.7
20260509220049 21 175 0.0 0.0 0.00 0.00 0.00 62 1007.7
20260509214549 21 176 0.0 0.0 0.00 0.00 0.00 61 1007.6
20260509213101 21 177 0.0 0.0 0.00 0.00 0.00 59 1007.5
20260509211611 21 179 0.0 0.0 0.00 0.00 0.00 55 1007.4
20260509210056 21 243 0.0 0.0 0.00 0.00 0.00 58 1007.5
20260509204558 21 221 0.0 0.0 0.00 0.00 0.00 58 1007.2
20260509203056 22 230 0.0 0.0 0.00 0.00 0.00 60 1007.1
20260509201547 22 236 0.0 0.0 0.00 0.00 0.00 59 1007.0
20260509200046 22 225 0.0 0.0 0.00 0.00 0.00 58 1007.1
20260509194546 22 202 0.0 0.0 0.00 0.00 0.00 57 1007.1
20260509193044 22 218 0.0 0.0 0.00 0.00 0.00 56 1007.1
20260509191543 23 179 0.0 1.6 0.00 0.00 0.00 55 1007.4
20260509190047 23 169 0.0 1.6 0.00 0.00 0.00 55 1007.6
20260509184539 23 215 0.0 0.0 0.00 0.00 0.00 57 1007.6
20260509183038 22 173 0.0 1.6 0.00 0.00 0.00 58 1007.9
20260509181535 22 213 0.0 6.4 0.00 0.00 0.00 56 1008.1
20260509180035 21 185 0.0 3.2 0.00 0.00 0.00 58 1008.2
20260509174535 22 205 0.0 0.0 0.00 0.00 0.00 57 1008.1
20260509173031 22 203 0.0 1.6 0.00 0.00 0.00 58 1008.3
20260509171528 21 234 0.0 3.2 0.00 0.00 0.00 58 1008.6
20260509170025 20 116 0.0 0.0 0.00 0.00 0.00 64 1008.8
20260509164523 21 236 0.0 0.0 0.00 0.00 0.00 63 1009.3
20260509163023 21 202 0.0 0.0 0.00 0.00 0.00 62 1009.4
20260509161520 20 67 0.0 1.6 0.00 0.00 0.00 63 1009.1
20260509160015 19 241 0.0 3.2 0.00 0.00 0.00 65 1009.0
20260509154515 19 118 0.0 0.0 0.00 0.00 0.00 65 1009.4
20260509153018 18 47 0.0 0.0 0.00 0.00 0.00 66 1009.8
20260509151506 17 221 0.0 0.0 0.00 0.00 0.00 69 1009.7
20260509150005 17 211 0.0 0.0 0.00 0.00 0.00 69 1009.7
20260509144504 17 172 0.0 0.0 0.00 0.00 0.00 67 1009.9
20260509143004 17 217 0.0 0.0 0.00 0.00 0.00 68 1010.0
20260509141502 17 273 0.0 1.6 0.00 0.00 0.00 68 1009.9
20260509140119 17 123 0.0 3.2 0.00 0.00 0.00 68 1009.8
20260509134558 16 294 0.0 0.0 0.00 0.00 0.00 72 1009.5
20260509133101 14 195 0.0 0.0 0.00 0.00 0.00 76 1010.4
20260509131551 13 94 0.0 0.0 0.00 0.00 0.00 79 1010.7
20260509130047 13 329 0.0 0.0 0.00 0.00 0.00 79 1010.8
20260509124546 13 329 0.0 0.0 0.00 0.00 0.00 79 1010.7
20260509123046 12 75 0.0 0.0 0.00 0.00 0.00 80 1011.1
20260509121541 11 238 0.0 0.0 0.00 0.00 0.00 79 1011.2